Location: Brachbach
(49.1847°N, 9.7240°E)
Time: 05:53:37
(UTC+00:00)

PCSat - Pass Details

Date: 16 March 2026
Orbit: 780 x 790 km, 67.1° (Epoch: 13 April)

Event Time Altitude Azimuth Distance (km) Brightness Sun altitude
Exits shadow 23:27:21 15° 12° (NNE) 2,013 12.2 -42.2°
Drops below altitude 10° 23:28:33 10° 21° (NNE) 2,364 12.6 -42.2°
Sets 23:31:21 0° 34° (NE) 3,297 13.4 -42.2°
